This is the latest recevied weather packets stored in our database for station/object SA6BET-2. If no packets are shown the sender has not sent any weather packets the latest 10 day(s).
| Time | Temp. | Humidity | Pressure | Rain* | Wind** | Luminosity | Snow |
|---|---|---|---|---|---|---|---|
| 1778321979 | 16.11° C | 100% | 1015.4 hPa | - | - | - | - |
| 1778321079 | 15° C | 100% | 1015.1 hPa | - | - | - | - |
| 1778320179 | 14.44° C | 100% | 1014.3 hPa | - | - | - | - |
| 1778319279 | 14.44° C | 100% | 1015.5 hPa | - | - | - | - |
| 1778318379 | 14.44° C | 100% | 1015.2 hPa | - | - | - | - |
| 1778317479 | 14.44° C | 100% | 1014.1 hPa | - | - | - | - |
| 1778316575 | 15° C | 100% | 1013.2 hPa | - | - | - | - |
| 1778315674 | 14.44° C | 100% | 1013.5 hPa | - | - | - | - |
| 1778314774 | 15° C | 100% | 1012.5 hPa | - | - | - | - |
| 1778313874 | 15° C | 100% | 1013.5 hPa | - | - | - | - |
| 1778312974 | 15.56° C | 100% | 1012.6 hPa | - | - | - | - |
| 1778312074 | 15.56° C | 100% | 1012.8 hPa | - | - | - | - |
| 1778311174 | 15.56° C | 100% | 1012.2 hPa | - | - | - | - |
| 1778310273 | 15° C | 100% | 1013.3 hPa | - | - | - | - |
| 1778309373 | 15.56° C | 100% | 1012.4 hPa | - | - | - | - |
| 1778308473 | 16.11° C | 100% | 1012.4 hPa | - | - | - | - |
| 1778307573 | 15.56° C | 100% | 1012.4 hPa | - | - | - | - |
| 1778306673 | 15.56° C | 100% | 1013.8 hPa | - | - | - | - |
| 1778305773 | 16.11° C | 100% | 1013.1 hPa | - | - | - | - |
| 1778304872 | 15.56° C | 100% | 1012.4 hPa | - | - | - | - |
| 1778303972 | 16.11° C | 100% | 1012.4 hPa | - | - | - | - |
| 1778303072 | 16.67° C | 100% | 1012.2 hPa | - | - | - | - |
| 1778302172 | 16.11° C | 100% | 1012.4 hPa | - | - | - | - |
| 1778301272 | 16.67° C | 100% | 1012.6 hPa | - | - | - | - |
| 1778300372 | 16.67° C | 100% | 1012.6 hPa | - | - | - | - |
* Rain since midnight (hover to see other rain measurements)
** Current wind speed in m/s (hover to see current wind gust speed)